Weather History for Storm Lake, IA

Change the Weather History Date:

Friday, December 21, 2012

  Actual Average Record
Temperature  
Mean Temperature 12 °F -  
Max Temperature 21 °F 27 °F 44 °F (2001)
Min Temperature 3 °F 12 °F -9 °F (1999)
Degree Days  
Heating Degree Days 53    
Moisture  
Dew Point 7 °F    
Average Humidity 80    
Maximum Humidity 86    
Minimum Humidity 73    
Precipitation  
Precipitation 0.00 in - - ()
Sea Level Pressure  
Sea Level Pressure 30.20 in    
Wind  
Wind Speed 11 mph (West)    
Max Wind Speed 17 mph    
Max Gust Speed -    
Visibility 10 miles    
Events      
Averages and records for this station are not official NWS values.
T = Trace of Precipitation, MM = Missing Value Source: NWS Daily Summary

Daily Weather History Graph

Daily Weather History Graph

Search for Another Location

Airport:

Trip Planner

Search our weather history database for the weather conditions in past years. The results will help you decide how hot, cold, wet, or windy it might be!

Date:

Astronomy

Dec. 21, 2012 Rise Set
Actual Time 7:47 AM CST 4:50 PM CST
Civil Twilight 7:15 AM CST 5:23 PM CST
Nautical Twilight 6:40 AM CST 5:58 PM CST
Astronomical Twilight 6:05 AM CST 6:33 PM CST
Moon 12:43 PM CST (12/21) 1:30 AM CST (12/21)
Length of Visible Light 10h 07m
Length of Day
9h 02m
Waxing Gibbous, 65% of the Moon is Illuminated
Dec 21
Waxing Gibbous
Dec 28
Full
Jan 4
Last Quarter
Jan 11
New
Jan 18
First Quarter

Hourly Weather History & Observations

Time (CST) Temp. Windchill Dew Point Humidity Pressure Visibility Wind Dir Wind Speed Gust Speed Precip Events Conditions
12:15 AM 10.4 °F -5.4 °F 5.0 °F 79% 30.12 in 10.0 mi NW 13.8 mph - N/A   Clear
12:35 AM 8.6 °F -7.0 °F 5.0 °F 85% 30.12 in 10.0 mi NNW 12.7 mph - N/A   Clear
12:55 AM 8.6 °F -7.0 °F 3.2 °F 79% 30.14 in 10.0 mi WNW 12.7 mph - N/A   Clear
1:15 AM 8.6 °F -7.0 °F 3.2 °F 79% 30.14 in 10.0 mi WNW 12.7 mph - N/A   Clear
1:35 AM 8.6 °F -7.0 °F 3.2 °F 79% 30.13 in 10.0 mi WNW 12.7 mph - N/A   Clear
1:55 AM 6.8 °F -10.7 °F 3.2 °F 85% 30.14 in 10.0 mi WNW 15.0 mph - N/A   Clear
2:15 AM 6.8 °F -11.8 °F 3.2 °F 85% 30.15 in 10.0 mi WNW 17.3 mph - N/A   Clear
2:35 AM 6.8 °F -11.8 °F 3.2 °F 85% 30.16 in 10.0 mi WNW 17.3 mph - N/A   Clear
2:55 AM 6.8 °F -11.3 °F 3.2 °F 85% 30.16 in 10.0 mi WNW 16.1 mph - N/A   Clear
3:15 AM 6.8 °F -10.7 °F 1.4 °F 79% 30.17 in 10.0 mi WNW 15.0 mph - N/A   Clear
3:35 AM 6.8 °F -10.7 °F 1.4 °F 79% 30.18 in 10.0 mi WNW 15.0 mph - N/A   Clear
3:55 AM 6.8 °F -10.7 °F 1.4 °F 79% 30.18 in 10.0 mi WNW 15.0 mph - N/A   Clear
4:15 AM 6.8 °F -8.6 °F 1.4 °F 79% 30.18 in 10.0 mi NW 11.5 mph - N/A   Clear
4:35 AM 6.8 °F -10.0 °F 1.4 °F 79% 30.18 in 10.0 mi NW 13.8 mph - N/A   Clear
4:55 AM 6.8 °F -10.0 °F 1.4 °F 79% 30.19 in 10.0 mi NW 13.8 mph - N/A   Clear
5:15 AM 5.0 °F -13.0 °F 1.4 °F 85% 30.19 in 10.0 mi WNW 15.0 mph - N/A   Clear
5:35 AM 5.0 °F -11.6 °F -0.4 °F 78% 30.20 in 10.0 mi WNW 12.7 mph - N/A   Clear
5:55 AM 3.2 °F -14.6 °F -0.4 °F 85% 30.21 in 10.0 mi WNW 13.8 mph - N/A   Clear
6:15 AM 5.0 °F -11.6 °F -0.4 °F 78% 30.21 in 10.0 mi WNW 12.7 mph - N/A   Clear
6:35 AM 5.0 °F -10.8 °F 1.4 °F 85% 30.21 in - NW 11.5 mph - N/A   Clear
6:55 AM 5.0 °F -9.1 °F -0.4 °F 78% 30.23 in 10.0 mi NW 9.2 mph - N/A   Clear
7:15 AM 5.0 °F -10.0 °F -0.4 °F 78% 30.24 in 10.0 mi NW 10.4 mph - N/A   Clear
7:35 AM 5.0 °F -10.0 °F -0.4 °F 78% 30.24 in 9.0 mi NW 10.4 mph - N/A   Clear
7:55 AM 3.2 °F -12.2 °F -0.4 °F 85% 30.24 in 9.0 mi NNW 10.4 mph - N/A   Clear
8:15 AM 3.2 °F -12.2 °F -0.4 °F 85% 30.24 in 9.0 mi North 10.4 mph - N/A   Clear
8:35 AM 5.0 °F -8.1 °F -0.4 °F 78% 30.24 in 10.0 mi North 8.1 mph - N/A   Clear
8:55 AM 6.8 °F -6.9 °F 1.4 °F 79% 30.25 in 10.0 mi NW 9.2 mph - N/A   Clear
9:15 AM 6.8 °F -7.8 °F 3.2 °F 85% 30.26 in 10.0 mi NNW 10.4 mph - N/A   Clear
9:35 AM 6.8 °F -5.9 °F 1.4 °F 79% 30.26 in 10.0 mi NNW 8.1 mph - N/A   Clear
9:55 AM 8.6 °F -2.6 °F 3.2 °F 79% 30.26 in 10.0 mi NW 6.9 mph - N/A   Clear
10:15 AM 8.6 °F -2.6 °F 3.2 °F 79% 30.26 in 10.0 mi NW 6.9 mph - N/A   Clear
10:35 AM 10.4 °F 0.8 °F 5.0 °F 79% 30.26 in 10.0 mi NNW 5.8 mph - N/A   Clear
10:55 AM 12.2 °F 2.9 °F 6.8 °F 79% 30.25 in 10.0 mi NNW 5.8 mph - N/A   Clear
11:15 AM 14.0 °F 5.1 °F 6.8 °F 73% 30.25 in 10.0 mi NNW 5.8 mph - N/A   Clear
11:35 AM 15.8 °F 8.6 °F 8.6 °F 73% 30.25 in 10.0 mi West 4.6 mph - N/A   Clear
11:55 AM 15.8 °F 7.2 °F 10.4 °F 79% 30.24 in 10.0 mi SW 5.8 mph - N/A   Clear
12:15 PM 14.0 °F 2.0 °F 8.6 °F 79% 30.25 in 10.0 mi West 9.2 mph - N/A   Clear
12:35 PM 15.8 °F 5.1 °F 10.4 °F 79% 30.24 in 9.0 mi West 8.1 mph - N/A   Clear
12:55 PM 15.8 °F 7.2 °F 10.4 °F 79% 30.23 in 10.0 mi West 5.8 mph - N/A   Clear
1:15 PM 17.6 °F 12.3 °F 12.2 °F 79% 30.23 in 10.0 mi West 3.5 mph - N/A   Clear
1:35 PM 19.4 °F - 12.2 °F 74% 30.22 in 10.0 mi Calm Calm - N/A   Clear
1:55 PM 19.4 °F - 12.2 °F 74% 30.22 in 10.0 mi Calm Calm - N/A   Clear
2:15 PM 19.4 °F - 14.0 °F 80% 30.22 in 10.0 mi Calm Calm - N/A   Clear
2:35 PM 19.4 °F - 14.0 °F 80% 30.22 in 10.0 mi Calm Calm - N/A   Clear
2:55 PM 21.2 °F 14.9 °F 14.0 °F 74% 30.21 in 10.0 mi SSW 4.6 mph - N/A   Clear
3:15 PM 21.2 °F 14.9 °F 14.0 °F 74% 30.22 in 10.0 mi SW 4.6 mph - N/A   Clear
3:35 PM 19.4 °F 12.8 °F 14.0 °F 80% 30.22 in 10.0 mi SSW 4.6 mph - N/A   Clear
3:55 PM 19.4 °F 14.3 °F 14.0 °F 80% 30.22 in 10.0 mi South 3.5 mph - N/A   Clear
4:15 PM 19.4 °F 12.8 °F 14.0 °F 80% 30.21 in 10.0 mi SE 4.6 mph - N/A   Clear
4:35 PM 17.6 °F 12.3 °F 12.2 °F 79% 30.22 in 10.0 mi SSE 3.5 mph - N/A   Clear
4:55 PM 17.6 °F 8.2 °F 12.2 °F 79% 30.21 in 10.0 mi South 6.9 mph - N/A   Clear
5:15 PM 15.8 °F 5.1 °F 12.2 °F 86% 30.21 in 10.0 mi South 8.1 mph - N/A   Clear
5:35 PM 15.8 °F 5.1 °F 12.2 °F 86% 30.21 in 10.0 mi South 8.1 mph - N/A   Clear
5:55 PM 15.8 °F 4.2 °F 12.2 °F 86% 30.21 in 10.0 mi South 9.2 mph - N/A   Clear
6:15 PM 15.8 °F 6.1 °F 12.2 °F 86% 30.21 in 10.0 mi SSE 6.9 mph - N/A   Clear
6:35 PM 14.0 °F 3.9 °F 10.4 °F 86% 30.21 in 10.0 mi SSE 6.9 mph - N/A   Clear
6:55 PM 15.8 °F 5.1 °F 12.2 °F 86% 30.20 in 10.0 mi SE 8.1 mph - N/A   Clear
7:15 PM 15.8 °F 4.2 °F 12.2 °F 86% 30.19 in 10.0 mi SSE 9.2 mph - N/A   Clear
7:35 PM 15.8 °F 2.7 °F 10.4 °F 79% 30.19 in 10.0 mi SSE 11.5 mph - N/A   Clear
7:55 PM 15.8 °F 5.1 °F 10.4 °F 79% 30.19 in 10.0 mi SSE 8.1 mph - N/A   Clear
8:15 PM 15.8 °F 4.2 °F 12.2 °F 86% 30.18 in 10.0 mi SSE 9.2 mph - N/A   Clear
8:35 PM 15.8 °F 3.4 °F 10.4 °F 79% 30.18 in 10.0 mi SSE 10.4 mph - N/A   Clear
8:55 PM 14.0 °F 2.9 °F 10.4 °F 86% 30.17 in 10.0 mi SSE 8.1 mph - N/A   Clear
9:15 PM 14.0 °F 2.0 °F 10.4 °F 86% 30.17 in 10.0 mi SSE 9.2 mph - N/A   Clear
9:35 PM 14.0 °F 2.9 °F 10.4 °F 86% 30.17 in 10.0 mi SSE 8.1 mph - N/A   Clear
9:55 PM 15.8 °F 3.4 °F 10.4 °F 79% 30.17 in 10.0 mi SSE 10.4 mph - N/A   Clear
10:15 PM 14.0 °F 2.9 °F 8.6 °F 79% 30.17 in 10.0 mi SSE 8.1 mph - N/A   Clear
10:35 PM 14.0 °F 1.2 °F 8.6 °F 79% 30.16 in 10.0 mi SSE 10.4 mph - N/A   Clear
10:55 PM 14.0 °F 0.5 °F 8.6 °F 79% 30.16 in 10.0 mi SSE 11.5 mph - N/A   Clear
11:15 PM 15.8 °F 2.7 °F 8.6 °F 73% 30.15 in 10.0 mi SSE 11.5 mph - N/A   Clear
11:35 PM 14.0 °F 1.2 °F 6.8 °F 73% 30.15 in 10.0 mi SSE 10.4 mph - N/A   Clear
11:55 PM 14.0 °F -0.2 °F 6.8 °F 73% 30.14 in 10.0 mi SSE 12.7 mph - N/A   Clear